Tracking 25954 objects as of 14-Aug-2022
HD Live streaming from Space Station
objects crossing your sky now

CZ-2C R/B

Track CZ-2C R/B now!
10-day predictions


NORAD ID: 45463
Int'l Code: 2020-021D
Perigee: 396.2 km
Apogee: 573.3 km
Inclination: 34.7 °
Period: 94.2 minutes
Semi major axis: 6855 km
RCS: Unknown
Launch date: March 24, 2020
Source: People's Republic of China (PRC)
Launch site: Xichang Space Center, China (XSC)

Note: This is a ROCKET BODY
aabbcc
Your satellite tracking list
Your tracking list is empty




NASA's NSSDC Master Catalog

Two Line Element Set (TLE):
1 45463U 20021D   22226.01109195  .00012957  00000-0  34247-3 0  9994
2 45463  34.6832  93.2015 0129137 129.7740 231.4425 15.29401595133259
Source of the keplerian elements: AFSPC